Portage, MI

8:07 AM EDT on July 30, 2016 (GMT -0400)
Kalamazoo-Battle Creek International

Weather History for KAZO - August, 2014

Change the Weather History Date:

Tuesday, August 19, 2014

  Actual Average Record
Temperature  
Mean Temperature 75 °F 70 °F  
Max Temperature 85 °F 81 °F 98 °F (1955)
Min Temperature 64 °F 60 °F 47 °F (1958)
Degree Days  
Heating Degree Days 0 0  
Month to date heating degree days 9 0  
Since 1 June heating degree days 51 53  
Since 1 July heating degree days 32 5  
Cooling Degree Days 10 6  
Month to date cooling degree days 94 126  
Year to date cooling degree days 439 552  
Since 1 June cooling degree days 385 511  
Growing Degree Days 24 (Base 50)    
Moisture  
Dew Point 65 °F    
Average Humidity 74    
Maximum Humidity 90    
Minimum Humidity 58    
Precipitation  
Precipitation 0.40 in 0.13 in 1.66 in (2007)
Month to date precipitation 0.70 2.25  
Year to date precipitation 15.94 21.97  
Sea Level Pressure  
Sea Level Pressure 29.77 in    
Wind  
Wind Speed 9 mph (SSW)    
Max Wind Speed 29 mph    
Max Gust Speed 44 mph    
Visibility 8 miles    
Events Rain , Thunderstorm    
T = Trace of Precipitation, MM = Missing Value Source: NWS Daily Summary

Daily Weather History Graph

Daily Weather History Graph

Search for Another Location

Airport or City:

Trip Planner

Search our weather history database for the weather conditions in past years. The results will help you decide how hot, cold, wet, or windy it might be!

Date:

Astronomy

Aug. 19, 2014 Rise Set
Actual Time 6:53 AM EDT 8:36 PM EDT
Civil Twilight 6:23 AM EDT 9:06 PM EDT
Nautical Twilight 5:47 AM EDT 9:42 PM EDT
Astronomical Twilight 5:08 AM EDT 10:21 PM EDT
Moon 1:43 AM EDT (8/19) 4:34 PM EDT (8/19)
Length of Visible Light 14h 42m
Length of Day
13h 43m
Waning Crescent, 29% of the Moon is Illuminated
Aug 19
Waning Crescent
Aug 25
New
Sep 2
First Quarter
Sep 8
Full
Sep 15
Last Quarter

Hourly Weather History & Observations

Time (EDT) Temp. Heat Index Dew Point Humidity Pressure Visibility Wind Dir Wind Speed Gust Speed Precip Events Conditions
12:53 AM 71.1 °F - 64.9 °F 81% 29.82 in 8.0 mi SSE 3.5 mph - N/A   Overcast
1:53 AM 70.0 °F - 63.0 °F 78% 29.81 in 10.0 mi South 3.5 mph - N/A   Mostly Cloudy
2:53 AM 69.1 °F - 61.0 °F 75% 29.79 in 10.0 mi SSE 6.9 mph - N/A   Scattered Clouds
3:53 AM 68.0 °F - 60.1 °F 76% 29.78 in 10.0 mi South 5.8 mph - N/A   Clear
4:53 AM 66.2 °F - 60.8 °F 83% 29.78 in 10.0 mi South 6.9 mph - N/A   Clear
5:53 AM 64.9 °F - 61.0 °F 87% 29.78 in 9.0 mi South 6.9 mph - N/A   Clear
6:53 AM 66.0 °F - 62.1 °F 87% 29.78 in 7.0 mi South 6.9 mph - N/A   Scattered Clouds
7:53 AM 69.1 °F - 64.0 °F 84% 29.80 in 4.0 mi SSW 6.9 mph - N/A   Haze
8:53 AM 69.1 °F - 63.0 °F 81% 29.80 in 7.0 mi SW 6.9 mph - 0.02 in Thunderstorm Overcast
9:14 AM 68.0 °F - 62.1 °F 81% 29.81 in 5.0 mi SW 6.9 mph - 0.01 in Rain Light Rain
9:53 AM 68.0 °F - 64.9 °F 90% 29.76 in 9.0 mi SSE 8.1 mph - 0.05 in Rain Light Rain
10:53 AM 73.9 °F - 66.0 °F 76% 29.77 in 10.0 mi South 10.4 mph - 0.00 in   Clear
11:53 AM 79.0 °F - 69.1 °F 72% 29.75 in 6.0 mi South 15.0 mph 20.7 mph N/A   Haze
12:20 PM 80.1 °F 82.9 °F 69.1 °F 69% 29.76 in 7.0 mi SSW 13.8 mph 24.2 mph N/A   Mostly Cloudy
12:53 PM 82.9 °F 86.5 °F 69.1 °F 63% 29.73 in 8.0 mi SSW 16.1 mph 26.5 mph N/A   Mostly Cloudy
1:53 PM 84.9 °F 88.2 °F 68.0 °F 57% 29.71 in 10.0 mi SSW 24.2 mph 29.9 mph N/A   Mostly Cloudy
2:32 PM 82.0 °F 84.5 °F 66.9 °F 60% 29.71 in 10.0 mi SSW 19.6 mph 27.6 mph N/A   Mostly Cloudy
2:53 PM 82.0 °F 84.1 °F 66.0 °F 58% 29.73 in 10.0 mi SW 16.1 mph 26.5 mph N/A   Mostly Cloudy
3:36 PM 73.0 °F - 62.1 °F 68% 29.77 in 10.0 mi North 16.1 mph - N/A Thunderstorm Mostly Cloudy
3:53 PM 70.0 °F - 62.1 °F 76% 29.77 in 10.0 mi NNW 24.2 mph 29.9 mph 0.00 in Rain , Thunderstorm Light Rain
3:57 PM 70.0 °F - 63.0 °F 78% 29.79 in 2.0 mi WNW 20.7 mph 29.9 mph 0.06 in Rain , Thunderstorm Light Thunderstorms and Rain
3:59 PM 69.1 °F - 64.0 °F 84% 29.81 in 1.0 mi WNW 28.8 mph 43.7 mph 0.20 in Rain , Thunderstorm Light Thunderstorms and Rain
4:05 PM 68.0 °F - 64.0 °F 87% 29.78 in 2.0 mi NW 17.3 mph 43.7 mph 0.30 in Rain , Thunderstorm Heavy Thunderstorms and Rain
4:14 PM 68.0 °F - 64.9 °F 90% 29.78 in 2.0 mi SW 8.1 mph - 0.30 in Rain , Thunderstorm Light Thunderstorms and Rain
4:21 PM 68.0 °F - 64.9 °F 90% 29.78 in 5.0 mi South 10.4 mph - 0.31 in Rain , Thunderstorm Light Thunderstorms and Rain
4:51 PM 68.0 °F - 64.4 °F 88% 29.76 in 8.0 mi Variable 3.5 mph - N/A Rain Light Rain
4:53 PM 68.0 °F - 64.9 °F 90% 29.75 in 8.0 mi Variable 3.5 mph - 0.33 in Rain , Thunderstorm Light Rain
5:27 PM 71.6 °F - 66.2 °F 83% 29.77 in 8.0 mi South 11.5 mph - N/A   Partly Cloudy
5:53 PM 73.9 °F - 68.0 °F 82% 29.76 in 10.0 mi South 9.2 mph - 0.00 in   Mostly Cloudy
6:53 PM 73.0 °F - 66.9 °F 81% 29.75 in 10.0 mi South 11.5 mph - N/A   Clear
7:53 PM 72.0 °F - 66.9 °F 84% 29.73 in 10.0 mi South 8.1 mph - N/A   Clear
8:53 PM 71.1 °F - 68.0 °F 90% 29.75 in 8.0 mi South 5.8 mph - N/A   Partly Cloudy
9:53 PM 72.0 °F - 66.0 °F 81% 29.76 in 10.0 mi SSW 8.1 mph - N/A   Mostly Cloudy
10:53 PM 70.0 °F - 64.9 °F 84% 29.77 in 10.0 mi South 3.5 mph - N/A   Mostly Cloudy
11:53 PM 70.0 °F - 66.0 °F 87% 29.77 in 10.0 mi SSE 4.6 mph - N/A   Mostly Cloudy